CCA8538 ZPPP-ZSPD

Flight info

Callsign CCA8538
Flight time N/A
Altitude 37100
Route NODIB5Q NODIB W137 LPS A581 QNX/K0843S1190 A581 WHA R343 EKIMU
Aircraft B38M/M-SDE1FGHILORVWXY/HB1

Departure

Time 2026-05-08 12:13
Airport Kunming Changshui International Airport (ZPPP)

Arrival

Time N/A
Airport Shanghai Pudong International Airport (ZSPD)
Time Latitude Longitude Altitude Speed Heading
2026-05-08 11:45 25.11028 102.93731 6898 ft 0 kts 39°
2026-05-08 12:00 25.11025 102.93728 6898 ft 2 kts 39°
2026-05-08 12:00 25.11010 102.93714 6899 ft 3 kts 39°
2026-05-08 12:01 25.10997 102.93703 6899 ft 3 kts 43°
2026-05-08 12:01 25.10987 102.93687 6899 ft 3 kts 80°
2026-05-08 12:01 25.10989 102.93669 6899 ft 3 kts 122°
2026-05-08 12:01 25.10998 102.93656 6899 ft 1 kts 128°
2026-05-08 12:04 25.10996 102.93659 6899 ft 2 kts 128°
2026-05-08 12:05 25.10971 102.93692 6899 ft 9 kts 129°
2026-05-08 12:05 25.10917 102.93697 6898 ft 8 kts 207°
2026-05-08 12:05 25.10861 102.93651 6898 ft 13 kts 218°
2026-05-08 12:05 25.10797 102.93601 6899 ft 9 kts 192°
2026-05-08 12:06 25.10734 102.93658 6898 ft 16 kts 128°
2026-05-08 12:06 25.10656 102.93765 6897 ft 18 kts 128°
2026-05-08 12:06 25.10582 102.93868 6896 ft 16 kts 128°
2026-05-08 12:06 25.10521 102.93953 6896 ft 13 kts 128°
2026-05-08 12:07 25.10469 102.94003 6896 ft 8 kts 169°
2026-05-08 12:07 25.10424 102.93973 6896 ft 9 kts 225°
2026-05-08 12:07 25.10364 102.93918 6896 ft 13 kts 218°
2026-05-08 12:07 25.10279 102.93844 6896 ft 18 kts 218°
2026-05-08 12:08 25.10172 102.93750 6896 ft 22 kts 218°
2026-05-08 12:08 25.10049 102.93643 6897 ft 23 kts 218°
2026-05-08 12:08 25.09933 102.93543 6897 ft 19 kts 218°
2026-05-08 12:08 25.09838 102.93460 6897 ft 16 kts 218°
2026-05-08 12:09 25.09759 102.93392 6898 ft 14 kts 218°
2026-05-08 12:09 25.09670 102.93314 6898 ft 19 kts 218°
2026-05-08 12:09 25.09557 102.93216 6899 ft 23 kts 218°
2026-05-08 12:09 25.09425 102.93101 6899 ft 25 kts 218°
2026-05-08 12:10 25.09302 102.92993 6899 ft 21 kts 218°
2026-05-08 12:10 25.09198 102.92903 6899 ft 17 kts 218°
2026-05-08 12:10 25.09129 102.92879 6899 ft 8 kts 155°
2026-05-08 12:10 25.09096 102.92917 6899 ft 6 kts 129°
2026-05-08 12:11 25.09074 102.92947 6899 ft 6 kts 129°
2026-05-08 12:11 25.09033 102.93004 6898 ft 13 kts 128°
2026-05-08 12:11 25.08989 102.93074 6897 ft 5 kts 104°
2026-05-08 12:11 25.08999 102.93095 6897 ft 2 kts 38°
2026-05-08 12:12 25.09003 102.93098 6897 ft 0 kts 38°
2026-05-08 12:12 25.09061 102.93149 6897 ft 38 kts 38°
2026-05-08 12:12 25.09441 102.93479 6898 ft 100 kts 38°
2026-05-08 12:13 25.10136 102.94085 6896 ft 152 kts 38°
2026-05-08 12:13 25.11081 102.94901 7043 ft 184 kts 37°
2026-05-08 12:13 25.12103 102.95807 7688 ft 194 kts 42°
2026-05-08 12:13 25.13045 102.96924 8302 ft 204 kts 53°
2026-05-08 12:14 25.13908 102.98160 8927 ft 207 kts 54°
2026-05-08 12:14 25.14790 102.99452 9468 ft 213 kts 54°
2026-05-08 12:14 25.15684 103.00765 10104 ft 215 kts 54°
2026-05-08 12:14 25.16602 103.02113 10555 ft 226 kts 54°
2026-05-08 12:15 25.17595 103.03575 10791 ft 250 kts 53°
2026-05-08 12:15 25.18660 103.05143 11201 ft 266 kts 53°
2026-05-08 12:15 25.19810 103.06838 11627 ft 283 kts 53°
2026-05-08 12:15 25.20980 103.08684 12033 ft 303 kts 55°
2026-05-08 12:16 25.22213 103.10664 12403 ft 323 kts 55°
2026-05-08 12:16 25.23529 103.12774 12723 ft 343 kts 54°
2026-05-08 12:16 25.24904 103.14977 13074 ft 360 kts 54°
2026-05-08 12:16 25.26355 103.17303 13562 ft 373 kts 54°
2026-05-08 12:17 25.27832 103.19673 14322 ft 375 kts 54°
2026-05-08 12:17 25.29330 103.22077 14893 ft 383 kts 54°
2026-05-08 12:17 25.30856 103.24527 15529 ft 387 kts 53°
2026-05-08 12:17 25.32393 103.26998 16125 ft 393 kts 53°
2026-05-08 12:18 25.33936 103.29477 16693 ft 397 kts 53°
2026-05-08 12:18 25.35512 103.32011 17294 ft 402 kts 53°
2026-05-08 12:18 25.37108 103.34581 17798 ft 408 kts 53°
2026-05-08 12:18 25.38728 103.37187 18402 ft 412 kts 53°
2026-05-08 12:19 25.40357 103.39813 18892 ft 417 kts 52°
2026-05-08 12:19 25.42006 103.42471 19358 ft 420 kts 52°
2026-05-08 12:19 25.43669 103.45154 19836 ft 424 kts 52°
2026-05-08 12:19 25.45325 103.47826 20309 ft 428 kts 52°
2026-05-08 12:20 25.47009 103.50545 20780 ft 431 kts 52°
2026-05-08 12:20 25.48713 103.53297 21245 ft 434 kts 52°
2026-05-08 12:20 25.50424 103.56063 21690 ft 438 kts 52°
2026-05-08 12:20 25.52155 103.58861 22141 ft 442 kts 52°
2026-05-08 12:21 25.53846 103.61712 22572 ft 446 kts 54°
2026-05-08 12:21 25.55527 103.64616 23026 ft 449 kts 54°
2026-05-08 12:21 25.57226 103.67536 23461 ft 452 kts 54°
2026-05-08 12:21 25.58933 103.70468 23859 ft 455 kts 54°
2026-05-08 12:22 25.60655 103.73426 24205 ft 458 kts 54°
2026-05-08 12:22 25.62390 103.76408 24546 ft 461 kts 54°
2026-05-08 12:22 25.64128 103.79397 24902 ft 463 kts 54°
2026-05-08 12:22 25.65881 103.82414 25234 ft 466 kts 54°
2026-05-08 12:23 25.67636 103.85437 25592 ft 468 kts 54°
2026-05-08 12:23 25.69405 103.88484 25931 ft 471 kts 54°
2026-05-08 12:23 25.71185 103.91553 26283 ft 474 kts 54°
2026-05-08 12:23 25.72974 103.94640 26620 ft 477 kts 54°
2026-05-08 12:24 25.74743 103.97694 26951 ft 479 kts 54°
2026-05-08 12:24 25.76550 104.00815 27300 ft 481 kts 54°
2026-05-08 12:24 25.78364 104.03950 27625 ft 484 kts 54°
2026-05-08 12:24 25.80221 104.07130 27943 ft 487 kts 53°
2026-05-08 12:25 25.82066 104.10263 28261 ft 489 kts 53°
2026-05-08 12:25 25.83938 104.13449 28564 ft 492 kts 53°
2026-05-08 12:25 25.85788 104.16600 28864 ft 494 kts 53°
2026-05-08 12:25 25.87672 104.19811 29175 ft 497 kts 53°
2026-05-08 12:26 25.89571 104.23051 29489 ft 500 kts 53°
2026-05-08 12:26 25.91467 104.26288 29767 ft 502 kts 53°
2026-05-08 12:26 25.93379 104.29555 30050 ft 505 kts 53°
2026-05-08 12:26 25.95301 104.32841 30307 ft 508 kts 53°
2026-05-08 12:27 25.97231 104.36142 30565 ft 510 kts 53°
2026-05-08 12:27 25.99161 104.39446 30816 ft 512 kts 53°
2026-05-08 12:27 26.01106 104.42776 31046 ft 514 kts 53°
2026-05-08 12:27 26.03295 104.45820 31275 ft 507 kts 38°
2026-05-08 12:28 26.05968 104.48419 31534 ft 506 kts 35°
2026-05-08 12:28 26.08617 104.50942 31721 ft 509 kts 34°
2026-05-08 12:28 26.11319 104.53483 31960 ft 510 kts 34°
2026-05-08 12:28 26.14048 104.56026 32236 ft 512 kts 34°
2026-05-08 12:29 26.16800 104.58585 32465 ft 514 kts 34°
2026-05-08 12:29 26.19552 104.61143 32713 ft 516 kts 34°
2026-05-08 12:29 26.22306 104.63704 32933 ft 518 kts 34°
2026-05-08 12:29 26.25077 104.66284 33134 ft 519 kts 33°
2026-05-08 12:30 26.27848 104.68865 33424 ft 519 kts 33°
2026-05-08 12:30 26.30583 104.71413 33744 ft 519 kts 33°
2026-05-08 12:30 26.33355 104.73998 34022 ft 519 kts 33°
2026-05-08 12:30 26.36133 104.76589 34034 ft 521 kts 33°
2026-05-08 12:31 26.38902 104.79176 34419 ft 518 kts 33°
2026-05-08 12:31 26.41668 104.81760 34691 ft 518 kts 33°
2026-05-08 12:31 26.44430 104.84342 34975 ft 517 kts 33°
2026-05-08 12:31 26.47180 104.86915 35247 ft 517 kts 33°
2026-05-08 12:32 26.49935 104.89494 35519 ft 516 kts 33°
2026-05-08 12:32 26.52685 104.92070 35810 ft 515 kts 33°
2026-05-08 12:32 26.55430 104.94643 36068 ft 514 kts 33°
2026-05-08 12:32 26.58173 104.97217 36309 ft 514 kts 33°
2026-05-08 12:33 26.60879 104.99755 36545 ft 514 kts 33°
2026-05-08 12:33 26.63471 105.02549 36802 ft 523 kts 46°
2026-05-08 12:33 26.65452 105.05992 37080 ft 531 kts 61°
2026-05-08 12:33 26.66999 105.09752 37276 ft 532 kts 61°
2026-05-08 12:34 26.70090 105.17306 37286 ft 534 kts 62°
2026-05-08 12:34 26.73118 105.24841 37282 ft 534 kts 62°
2026-05-08 12:35 26.76155 105.32422 37330 ft 534 kts 62°
2026-05-08 12:35 26.79187 105.40002 37290 ft 533 kts 62°
2026-05-08 12:36 26.82222 105.47605 37283 ft 534 kts 62°
2026-05-08 12:36 26.85250 105.55203 37292 ft 535 kts 62°
2026-05-08 12:37 26.88260 105.62771 37296 ft 535 kts 62°
2026-05-08 12:37 26.91292 105.70408 37288 ft 535 kts 62°
2026-05-08 12:38 26.94317 105.78040 37311 ft 535 kts 62°
2026-05-08 12:38 26.97341 105.85686 37307 ft 536 kts 62°
2026-05-08 12:39 27.00349 105.93307 37310 ft 537 kts 62°
2026-05-08 12:39 27.03371 106.00973 37317 ft 537 kts 62°
2026-05-08 12:40 27.06721 106.08373 37319 ft 536 kts 58°
2026-05-08 12:40 27.10114 106.15832 37325 ft 536 kts 58°
2026-05-08 12:41 27.12921 106.22039 37319 ft 536 kts 58°
2026-05-08 12:41 27.16853 106.30747 37324 ft 536 kts 58°
2026-05-08 12:42 27.19660 106.36966 37326 ft 536 kts 58°
2026-05-08 12:42 27.23055 106.44429 37337 ft 536 kts 58°
2026-05-08 12:43 27.26447 106.51904 37319 ft 537 kts 58°
2026-05-08 12:43 27.29843 106.59400 37360 ft 538 kts 58°
2026-05-08 12:44 27.33235 106.66903 37324 ft 537 kts 58°
2026-05-08 12:44 27.36604 106.74373 37333 ft 538 kts 58°
2026-05-08 12:45 27.39979 106.81901 37325 ft 539 kts 58°
2026-05-08 12:45 27.43351 106.89432 37320 ft 539 kts 58°
2026-05-08 12:46 27.46718 106.96967 37334 ft 539 kts 58°
2026-05-08 12:46 27.50118 107.04483 37336 ft 539 kts 58°
2026-05-08 12:47 27.53519 107.12018 37333 ft 539 kts 58°
2026-05-08 12:47 27.56886 107.19489 37335 ft 539 kts 58°
2026-05-08 12:48 27.60287 107.27029 37326 ft 539 kts 58°
2026-05-08 12:48 27.63682 107.34571 37336 ft 540 kts 58°
2026-05-08 12:49 27.67084 107.42141 37342 ft 540 kts 58°
2026-05-08 12:49 27.70471 107.49690 37324 ft 539 kts 58°
2026-05-08 12:50 27.73843 107.57221 37333 ft 540 kts 58°
2026-05-08 12:50 27.77236 107.64814 37332 ft 540 kts 58°
2026-05-08 12:51 27.82298 107.76154 37317 ft 540 kts 58°
2026-05-08 12:52 27.85737 107.83657 37311 ft 540 kts 57°
2026-05-08 12:52 27.90912 107.94997 37327 ft 539 kts 57°
2026-05-08 12:53 27.94342 108.02528 37324 ft 539 kts 58°
2026-05-08 12:53 27.97768 108.10069 37292 ft 539 kts 58°
2026-05-08 12:54 28.01193 108.17616 37323 ft 540 kts 58°
2026-05-08 12:54 28.04591 108.25121 37309 ft 538 kts 58°
2026-05-08 12:55 28.08005 108.32673 37309 ft 538 kts 58°
2026-05-08 12:55 28.11418 108.40238 37294 ft 538 kts 58°
2026-05-08 12:56 28.14823 108.47801 37337 ft 539 kts 58°
2026-05-08 12:56 28.18210 108.55337 37323 ft 539 kts 58°
2026-05-08 12:57 28.21618 108.62931 37323 ft 539 kts 58°
2026-05-08 12:57 28.25011 108.70510 37294 ft 540 kts 58°
2026-05-08 12:58 28.28403 108.78100 37311 ft 537 kts 58°
2026-05-08 12:58 28.31776 108.85656 37306 ft 540 kts 58°
2026-05-08 12:59 28.35173 108.93284 37319 ft 540 kts 58°
2026-05-08 12:59 28.38572 109.00933 37307 ft 540 kts 58°
2026-05-08 13:00 28.41953 109.08550 37324 ft 541 kts 58°
2026-05-08 13:00 28.45312 109.16147 37320 ft 540 kts 58°
2026-05-08 13:01 28.48687 109.23803 37325 ft 542 kts 58°
2026-05-08 13:01 28.52056 109.31457 37324 ft 542 kts 58°
2026-05-08 13:02 28.55416 109.39108 37313 ft 542 kts 58°
2026-05-08 13:02 28.58619 109.46899 37324 ft 546 kts 64°
2026-05-08 13:03 28.61415 109.54958 37321 ft 547 kts 64°
2026-05-08 13:03 28.64169 109.63003 37325 ft 548 kts 64°
2026-05-08 13:04 28.67034 109.71033 37317 ft 547 kts 63°
2026-05-08 13:04 28.69916 109.79064 37322 ft 546 kts 63°
2026-05-08 13:05 28.72781 109.87075 37327 ft 547 kts 63°
2026-05-08 13:05 28.75650 109.95115 37315 ft 547 kts 63°
2026-05-08 13:06 28.78502 110.03125 37312 ft 548 kts 63°
2026-05-08 13:06 28.81358 110.11161 37317 ft 546 kts 63°
2026-05-08 13:07 28.84219 110.19230 37312 ft 547 kts 63°
2026-05-08 13:07 28.87046 110.27225 37296 ft 548 kts 63°
2026-05-08 13:08 28.89894 110.35293 37332 ft 547 kts 63°
2026-05-08 13:08 28.91314 110.39328 37179 ft 547 kts 63°
2026-05-08 13:08 28.92728 110.43341 37337 ft 543 kts 63°
2026-05-08 13:09 28.95560 110.51402 37264 ft 547 kts 63°
2026-05-08 13:09 28.98389 110.59470 37331 ft 549 kts 63°